Wind_Speed
33 34 34 35 35 35 34 34 33 33 33 34 34 34 34 34 34 34 34 34 34 34 34 34 34 34 34 34 35 35 36 35 36 37 37 37 37 38 38 39 39 39 40
35 35 35 35 35 35 35 36 35 35 35 35 35 36 37 37 36 36 36 35 35 35 35 35 35 36 36 36 37 37 37 37 38 38 39 39 39 39 39 40 41 41 41
37 36 37 37 37 37 37 37 37 37 36 36 37 37 38 38 38 38 38 37 37 37 37 37 37 38 38 38 37 37 38 39 39 39 39 40 40 41 41 41 42 43 43
39 39 39 39 39 39 39 39 38 38 39 39 39 39 39 40 40 40 39 39 38 38 38 39 39 39 39 39 40 40 40 40 40 40 40 41 41 42 43 43 43 43 43
40 41 41 41 41 41 41 41 41 40 41 41 41 41 41 41 41 40 40 40 40 40 40 40 41 40 40 41 41 41 42 42 42 42 42 42 43 44 44 45 45 45 46
41 41 42 42 43 43 43 43 42 42 42 42 43 43 42 42 42 41 41 41 41 41 41 41 41 41 41 41 42 42 43 43 44 44 44 44 44 45 46 47 47 47 47
41 41 42 42 43 44 44 44 43 43 43 43 44 44 44 43 43 42 42 42 42 42 42 42 41 41 42 42 43 43 43 44 45 45 45 45 45 45 46 46 47 47 47
42 42 42 43 43 43 44 44 44 44 44 44 44 44 43 44 43 43 43 43 43 44 44 43 43 43 43 43 44 44 44 45 45 46 46 46 46 46 47 47 47 48 48
43 43 43 43 43 43 43 44 44 44 44 44 44 44 43 43 43 43 44 44 44 44 45 45 45 45 45 45 45 45 45 46 46 47 47 48 48 48 48 48 48 48 49
43 43 43 44 44 44 44 44 43 43 44 45 44 43 44 44 44 44 45 45 45 46 46 45 45 46 45 45 45 46 46 47 47 47 47 48 48 49 49 49 49 48 49
44 44 43 43 43 43 43 43 43 44 44 44 44 44 44 44 44 44 44 45 45 45 46 46 46 46 46 46 46 46 47 47 47 48 48 48 48 48 48 48 48 48 48
44 44 44 44 43 43 42 42 43 43 44 44 44 44 44 44 45 44 43 43 44 44 45 46 47 47 47 47 47 47 47 48 48 48 48 48 48 48 47 46 47 47 48
43 43 44 43 43 43 43 42 43 43 43 43 43 44 44 44 44 44 44 43 43 44 44 45 46 46 46 47 47 48 48 48 48 48 48 48 48 48 47 47 47 47 47
43 43 43 43 43 43 43 43 43 42 42 42 42 42 41 42 43 43 43 43 43 43 44 44 45 45 46 47 47 47 48 48 48 48 48 48 47 47 47 47 47 47 47
43 43 42 42 43 42 42 42 42 42 42 43 42 42 42 42 43 43 43 44 44 44 43 44 44 45 46 47 47 47 47 47 47 47 47 47 46 46 46 47 47 47 48
43 43 43 42 42 42 42 42 42 42 42 42 42 42 43 43 43 44 43 43 42 43 42 42 43 44 44 45 46 46 46 46 45 45 45 45 45 45 45 45 46 46 47
42 41 41 41 41 41 41 41 41 42 42 43 43 42 42 43 43 43 43 43 43 43 42 42 42 43 43 43 43 43 44 44 44 44 44 43 43 43 43 44 44 45 45
40 40 40 40 40 40 40 41 41 42 42 42 43 43 43 43 43 43 43 44 44 43 43 42 42 42 42 42 42 41 42 42 42 42 42 42 42 42 42 43 43 44 44
40 40 41 41 40 40 41 41 42 42 42 43 43 43 43 43 43 43 43 43 43 43 43 43 42 41 41 41 41 41 41 41 41 42 42 42 42 42 42 42 42 43 42
39 40 40 41 41 41 40 41 42 42 42 42 42 43 43 43 43 43 42 42 42 42 42 42 41 40 40 40 40 40 40 41 40 41 41 41 41 41 41 41 41 41 41
38 38 38 39 39 39 39 40 41 40 40 41 41 42 42 42 42 41 41 40 40 40 40 41 40 39 38 38 38 38 39 40 39 40 40 40 40 40 41 41 41 41 41
36 36 37 38 38 38 38 39 40 40 40 40 40 40 41 40 40 40 40 40 39 38 39 39 38 37 37 37 38 38 38 39 39 40 40 40 40 40 40 40 40 40 39
35 36 37 37 37 37 38 39 39 38 38 39 39 39 39 39 39 39 39 38 38 38 38 38 37 37 37 37 38 38 38 39 39 39 39 40 40 40 39 39 39 38 38
35 35 36 36 36 36 36 36 36 36 36 37 37 37 37 38 39 39 39 39 38 38 38 38 37 37 37 38 38 38 38 38 38 38 39 38 39 38 38 38 37 37 37
34 34 34 34 35 35 35 35 35 35 35 35 35 36 36 37 38 38 39 39 39 39 38 37 37 37 37 37 37 38 37 37 37 37 37 37 36 36 35 35 35 35 34
33 33 33 33 33 33 33 34 34 34 34 35 35 36 37 38 38 38 38 38 37 37 37 36 36 35 35 36 36 35 35 36 36 35 35 34 34 33 32 32 33 32 31
Wind_Direction
262 265 266 267 269 269 270 270 269 270 271 270 270 271 271 271 271 271 272 273 273 275 275 275 276 275 276 277 277 277 278 279 279 280 281 280 279 278 277 277 277 276 276
262 262 263 265 267 269 269 270 270 270 271 271 271 272 272 271 271 272 272 272 273 274 275 276 276 276 277 278 278 278 278 279 280 280 281 281 280 279 278 279 278 277 277
261 262 262 264 265 267 269 270 270 270 270 270 271 272 272 272 271 271 271 272 273 274 274 275 275 275 277 278 278 278 278 279 279 280 281 281 280 279 278 279 278 277 277
262 263 265 265 266 268 269 270 270 270 270 270 271 271 272 272 271 271 270 271 272 273 274 274 275 276 276 277 278 278 278 279 280 281 281 280 280 279 278 278 278 278 277
264 265 265 266 267 268 269 270 270 270 270 271 271 271 271 271 271 271 270 271 273 274 274 274 275 276 277 277 278 278 279 279 279 280 281 281 279 279 279 277 277 277 276
267 267 268 267 268 269 269 270 270 270 271 271 271 271 271 271 271 270 270 271 272 274 274 274 274 275 276 277 278 278 279 279 279 280 281 280 280 280 279 278 277 277 275
269 269 269 269 270 270 270 270 271 271 271 271 271 271 270 270 270 269 270 271 272 273 274 274 273 274 275 277 278 279 280 279 279 280 280 280 280 280 280 279 278 277 276
269 270 269 269 271 272 271 271 270 270 270 271 271 271 270 270 269 270 271 272 272 273 273 273 273 274 275 277 278 279 279 280 280 280 280 280 280 280 280 279 278 277 278
269 270 269 269 270 271 272 271 271 270 270 270 270 270 270 270 270 271 271 272 272 272 273 272 272 274 276 277 278 278 279 280 280 280 280 280 280 281 280 280 279 279 279
269 270 270 269 270 270 272 272 271 270 270 270 270 270 270 270 271 272 272 272 273 273 273 273 273 275 277 277 277 277 278 280 280 280 281 282 282 282 282 281 281 280 280
269 269 270 270 270 270 271 271 271 271 271 271 271 271 270 270 271 273 273 273 274 274 274 274 274 275 276 277 277 278 279 280 281 281 281 282 283 282 282 282 281 281 281
269 269 270 270 270 269 270 271 271 272 272 272 271 271 271 271 271 272 274 275 275 275 275 274 275 275 275 276 277 278 279 280 281 282 282 283 283 283 283 282 283 282 281
268 269 269 269 269 269 269 270 271 272 272 272 271 271 271 271 271 272 274 275 276 276 276 276 277 276 276 277 278 278 280 281 281 282 282 283 282 282 282 282 283 283 282
267 267 268 268 268 268 269 270 270 271 271 272 272 272 272 273 273 273 273 274 276 276 277 277 277 278 278 278 279 279 280 281 281 281 282 282 282 282 282 282 283 283 283
266 267 268 268 268 268 269 269 270 270 271 271 271 271 272 273 274 274 274 275 276 277 277 277 278 278 278 278 279 279 280 280 281 281 282 282 282 281 282 283 283 283 283
267 266 267 268 268 267 268 268 269 270 270 270 271 271 271 273 275 275 275 275 276 277 278 278 278 278 279 280 279 279 279 280 281 282 282 282 282 282 283 283 284 284 283
267 267 267 266 267 267 266 268 269 269 270 270 270 271 273 273 274 275 275 275 276 278 279 279 279 278 280 280 280 279 279 280 281 282 283 284 284 284 284 285 284 284 284
267 267 268 267 267 267 267 268 269 269 268 269 269 270 271 273 274 275 276 277 277 277 279 280 279 279 280 280 279 279 279 281 282 284 284 284 285 284 285 284 285 285 285
268 268 268 268 267 268 268 269 269 269 269 269 270 271 271 272 273 273 274 276 277 277 278 279 279 279 279 279 279 280 280 281 283 284 284 285 285 286 286 285 285 285 285
269 269 268 268 269 269 269 269 269 269 269 269 270 271 271 271 272 272 274 276 277 277 278 278 278 278 278 278 279 280 281 282 283 283 284 285 286 285 286 286 286 286 285
270 270 269 270 270 270 269 269 269 269 269 270 271 271 271 271 271 272 274 275 276 277 278 278 278 278 279 279 280 281 282 283 283 283 284 285 285 285 285 286 286 286 286
271 270 270 270 270 270 270 270 269 269 270 270 270 270 269 269 270 271 273 274 276 277 277 278 279 279 279 280 281 282 283 284 284 284 285 285 285 286 286 287 287 287 286
271 271 271 271 271 271 271 271 271 271 271 270 269 270 269 269 270 271 272 274 276 277 277 279 279 280 280 281 282 283 284 285 285 284 285 285 285 287 288 288 288 287 287
271 272 273 272 272 271 271 271 271 272 272 270 270 270 271 272 271 271 272 273 275 276 277 278 279 280 281 282 282 282 283 285 286 286 286 286 286 288 288 288 288 288 289
273 274 274 273 273 273 273 273 272 272 272 272 272 272 273 273 273 274 274 274 275 276 277 278 277 278 279 282 283 284 284 285 287 287 287 287 287 288 288 288 289 290 290
273 274 274 274 274 274 275 275 275 275 275 274 274 274 275 274 274 275 275 275 276 276 277 277 277 278 280 282 284 285 285 286 287 287 287 288 289 289 288 289 291 291 291
Height
5793 5793 5793 5793 5793 5793 5793 5793 5793 5792 5792 5792 5791 5791 5790 5789 5789 5789 5788 5787 5786 5786 5785 5784 5783 5782 5781 5780 5779 5778 5776 5775 5773 5772 5771 5770 5768 5767 5766 5765 5763 5762 5761
5785 5785 5786 5786 5786 5786 5785 5785 5785 5785 5785 5784 5784 5783 5782 5781 5781 5781 5780 5779 5778 5778 5777 5776 5775 5774 5773 5772 5770 5769 5768 5767 5765 5764 5762 5761 5760 5758 5757 5755 5754 5753 5751
5777 5777 5778 5778 5778 5778 5778 5777 5777 5777 5777 5776 5775 5775 5774 5773 5773 5772 5772 5771 5770 5770 5769 5768 5767 5765 5764 5763 5762 5760 5759 5758 5756 5755 5753 5752 5750 5748 5747 5745 5744 5742 5741
5769 5769 5769 5769 5769 5769 5769 5769 5769 5768 5768 5767 5767 5766 5765 5765 5764 5763 5763 5762 5761 5761 5760 5759 5758 5756 5755 5754 5753 5752 5750 5749 5747 5746 5744 5742 5740 5739 5737 5735 5733 5732 5730
5760 5760 5760 5760 5760 5760 5760 5760 5759 5759 5759 5758 5757 5757 5756 5755 5754 5754 5753 5753 5752 5751 5750 5750 5748 5747 5746 5745 5744 5742 5741 5739 5738 5736 5734 5732 5730 5728 5726 5724 5722 5721 5719
5751 5751 5751 5751 5751 5750 5750 5750 5749 5749 5749 5748 5748 5747 5746 5745 5745 5744 5744 5743 5742 5741 5741 5740 5739 5738 5736 5735 5734 5732 5731 5729 5728 5726 5724 5722 5719 5717 5715 5713 5711 5709 5708
5742 5742 5741 5741 5740 5740 5740 5739 5739 5738 5738 5738 5737 5737 5736 5735 5734 5734 5733 5733 5732 5731 5731 5729 5728 5727 5726 5725 5724 5722 5720 5719 5717 5715 5713 5710 5708 5706 5703 5701 5699 5697 5696
5732 5732 5731 5731 5730 5730 5729 5729 5728 5728 5727 5727 5726 5726 5726 5726 5724 5724 5723 5722 5721 5721 5720 5719 5718 5717 5716 5715 5713 5712 5710 5707 5705 5703 5701 5699 5697 5694 5692 5690 5688 5686 5684
5722 5721 5721 5721 5720 5720 5719 5718 5718 5717 5716 5716 5715 5715 5715 5714 5714 5714 5713 5711 5710 5709 5709 5708 5707 5706 5705 5704 5702 5701 5699 5696 5694 5692 5690 5687 5685 5683 5680 5678 5676 5674 5672
5711 5711 5711 5710 5710 5709 5709 5708 5707 5706 5706 5705 5705 5704 5704 5703 5703 5703 5702 5701 5699 5698 5697 5696 5695 5694 5693 5692 5691 5689 5688 5685 5683 5681 5678 5676 5673 5671 5668 5666 5664 5661 5660
5701 5700 5700 5700 5699 5698 5698 5697 5696 5696 5695 5695 5694 5693 5693 5692 5691 5691 5691 5690 5688 5687 5685 5684 5683 5682 5681 5680 5679 5678 5676 5674 5672 5669 5667 5664 5662 5659 5656 5654 5651 5649 5647
5690 5689 5689 5688 5688 5688 5687 5686 5686 5685 5684 5684 5683 5683 5682 5681 5681 5680 5679 5678 5677 5676 5674 5673 5672 5670 5669 5668 5667 5666 5664 5662 5660 5657 5655 5652 5650 5647 5644 5642 5639 5637 5634
5678 5678 5678 5677 5677 5677 5676 5675 5675 5674 5674 5673 5672 5672 5671 5670 5669 5669 5668 5667 5666 5665 5663 5662 5660 5658 5657 5656 5655 5653 5652 5650 5647 5645 5643 5640 5637 5635 5632 5630 5627 5624 5622
5667 5667 5667 5666 5666 5666 5665 5664 5664 5663 5663 5662 5662 5661 5660 5659 5658 5657 5657 5656 5655 5654 5652 5651 5649 5647 5645 5644 5643 5641 5639 5637 5635 5632 5630 5628 5625 5622 5620 5617 5615 5612 5609
5656 5655 5655 5655 5655 5654 5654 5653 5653 5653 5652 5651 5651 5650 5649 5648 5647 5646 5645 5644 5643 5643 5642 5640 5637 5635 5633 5632 5630 5628 5627 5625 5622 5620 5618 5615 5613 5610 5607 5605 5602 5600 5597
5644 5644 5644 5644 5644 5643 5643 5642 5642 5642 5641 5641 5640 5639 5638 5637 5636 5635 5634 5632 5631 5630 5630 5628 5626 5624 5621 5620 5618 5616 5614 5613 5610 5608 5606 5603 5601 5598 5595 5593 5590 5587 5584
5632 5633 5633 5633 5632 5632 5632 5631 5631 5631 5630 5629 5629 5628 5627 5626 5625 5624 5622 5621 5620 5619 5618 5617 5614 5612 5610 5608 5606 5604 5602 5600 5599 5596 5594 5591 5589 5586 5583 5581 5578 5575 5572
5621 5621 5621 5621 5621 5621 5621 5620 5620 5619 5619 5618 5617 5616 5616 5614 5614 5613 5611 5610 5609 5607 5606 5605 5603 5601 5599 5597 5595 5593 5591 5589 5587 5585 5582 5580 5577 5574 5572 5569 5566 5563 5560
5611 5610 5610 5610 5610 5610 5610 5609 5609 5608 5607 5606 5606 5605 5604 5603 5602 5601 5600 5599 5597 5596 5594 5593 5592 5590 5588 5586 5584 5582 5580 5578 5576 5573 5571 5568 5566 5563 5560 5557 5555 5552 5549
5600 5599 5599 5599 5599 5599 5598 5598 5597 5596 5596 5595 5594 5594 5593 5592 5591 5590 5589 5588 5586 5585 5583 5582 5581 5579 5577 5575 5573 5572 5570 5567 5565 5562 5560 5557 5554 5552 5549 5546 5544 5540 5537
5589 5588 5588 5588 5588 5587 5587 5586 5585 5585 5584 5584 5583 5582 5582 5581 5579 5579 5578 5576 5575 5574 5572 5571 5569 5568 5567 5565 5563 5561 5559 5556 5554 5551 5549 5546 5544 5541 5538 5535 5532 5529 5526
5578 5578 5577 5577 5577 5576 5576 5575 5574 5574 5573 5572 5572 5571 5570 5569 5568 5568 5567 5565 5564 5563 5562 5560 5559 5558 5556 5554 5552 5550 5548 5545 5544 5541 5538 5535 5532 5530 5527 5524 5521 5518 5515
5568 5567 5567 5566 5566 5565 5565 5564 5563 5562 5562 5561 5560 5560 5559 5558 5558 5557 5556 5554 5553 5552 5551 5550 5548 5547 5545 5544 5542 5540 5537 5534 5532 5529 5527 5524 5521 5518 5516 5513 5510 5507 5504
5557 5557 5556 5556 5555 5554 5553 5553 5552 5551 5551 5550 5549 5549 5548 5547 5546 5545 5545 5544 5543 5542 5541 5539 5538 5536 5535 5533 5531 5529 5526 5524 5522 5519 5516 5514 5510 5507 5505 5502 5499 5496 5494
5547 5546 5546 5545 5544 5544 5543 5542 5541 5540 5540 5539 5538 5538 5537 5536 5535 5534 5534 5533 5532 5531 5529 5528 5527 5526 5524 5522 5520 5518 5516 5514 5512 5509 5506 5504 5501 5497 5495 5492 5489 5486 5483
5537 5537 5536 5535 5534 5533 5532 5531 5530 5529 5529 5529 5528 5527 5526 5525 5524 5523 5522 5522 5521 5520 5519 5517 5516 5515 5514 5512 5510 5508 5506 5503 5501 5500 5497 5494 5491 5488 5486 5483 5480 5477 5474